CZ-4C DEB

Satellite information

Favourite Embed

Satellite Type and Status

DEBRISIN ORBIT

Key statistics

Satellite CZ-4C DEB at a glance.

Uptime

6608

Days in orbit

Revolutions

≈ 14.5

Per day

Orbit

SSO

Sun Synchronous Orbit

Inclination

97.8

Latest

Satellite identification and parameters

Extended collection of information and parameters for CZ-4C DEB.

Object identification

Identified? True

Debris? True

Object name: CZ-4C DEB

International designator: 2007-055D

Object number (NORAD): 35249

Object ID (CCSDS): 35249

Country: PEOPLES REPUBLIC OF CHINA (PRC)

Current information (Y/N): Y

RCS size: SMALL

Orbital parameters

Period: 99.373 minutes

Inclination: 97.7552 deg

SMA: 7106.76 km

Apoapsis: 873.631 km

Periapsis: 583.618 km

RAAN: 170.4068 deg

Eccentricy: 0.02040405

Argument of periapsis: 71.1126 deg

Mean anomaly: 291.207 deg

Mean motion: 14.49089858 rev/day

Mean motion (dot): 0.00004964 rev/day2

B* drag term: 0.0010103063 1/REarth

Two-line elements (TLE)

Creation date: Dec. 13, 2025, 5:47 p.m.

Reference frame: TEME

Reference center: EARTH

Epoch: Dec. 13, 2025, 7:07 a.m. UTC

TLE line 0: 0 CZ-4C DEB

TLE line 1: 1 35249U 07055D 25347.29708414 .00004964 00000-0 10103-2 0 9996

TLE line 2: 2 35249 97.7552 170.4068 0204041 71.1126 291.2070 14.49089858943389

Live tracking on map

Real-time ground track for satellite CZ-4C DEB.

In-orbit conjunctions

A list of the most updated potential collisions computed for object CZ-4C DEB.

Target Orbit TCA Probability of collision Miss distance Type
COSMOS 1275 DEB LEO 2025-10-11 14:22:29 0.0001120869 214.0 (m) DEBRIS
COSMOS 1570 LEO 2025-09-27 02:01:06 0.0002659379 516.0 (m) PAYLOAD
COSMOS 2251 DEB LEO 2025-09-20 05:02:37 0.0001279905 520.0 (m) DEBRIS
CZ-4 DEB SSO 2025-08-04 20:44:07 0.0001036703 118.0 (m) DEBRIS
COSMOS 1275 DEB LEO 2024-11-15 15:40:14 0.0001758745 150.0 (m) DEBRIS

Associated space launch

Chinese Earth observation satellite likely also used for military reconnaissance

CZ-4C DEB was lifted into orbit during the mission ‘Long March 4C | Yaogan Weixing 3’, on board a Long March 4C space rocket.

The launch took place on Nov. 11, 2007, 10:48 p.m. from Launch Complex 7.

For more information about the launch, click the button.

Launch to space Long March 4C | Yaogan Weixing 3
Long March 4C | Yaogan Weixing 3

Agency: N/A

Status: Launch Successful

Launch date: Nov. 11, 2007, 10:48 p.m. UTC

Rocket: Long March 4C

Launch pad: Launch Complex 7

Location: Taiyuan Satellite Launch Center, People's Republic of China

...

Latest news about this satellite

There are no fresh news available about this satellite. Check back as we update our databases every day.


Newsletter sign-up

Weekly statistics, charts and insights to help you stay on top of the space industry.